Location: Northam
(31.6525°S, 116.6655°E)
Time: 07:23:24
(UTC+08:00)

N. Korean satellite - Pass Details

Date: 19 May 2021
Orbit: 450 x 500 km, 97.2° (Epoch: 13 June)

Event Time Altitude Azimuth Distance (km) Brightness Sun altitude
Rises 05:29:14 0° 347° (NNW) 2,480 10.2 -18.6°
Reaches altitude 10° 05:31:30 10° 333° (NNW) 1,623 9.1 -18.1°
Enters shadow 05:31:52 12° 329° (NNW) 1,499 8.9 -18.0°
